Change the Weather History Date:

Thursday, October 3, 2013

  Actual Average Record
Temperature  
Mean Temperature 83 °F 79 °F  
Max Temperature 91 °F 87 °F 94 °F (1959)
Min Temperature 74 °F 72 °F 55 °F (1984)
Degree Days  
Heating Degree Days 0 0  
Month to date heating degree days 0 0  
Since 1 July heating degree days 0 0  
Cooling Degree Days 18 14  
Month to date cooling degree days 53 43  
Year to date cooling degree days 3205 3059  
Growing Degree Days 32 (Base 50)    
Moisture  
Dew Point 69 °F    
Average Humidity 67    
Maximum Humidity 87    
Minimum Humidity 46    
Precipitation  
Precipitation 0.00 in 0.11 in 2.00 in (1939)
Month to date precipitation 0.00 0.35  
Year to date precipitation 49.89 40.37  
Sea Level Pressure  
Sea Level Pressure 30.04 in    
Wind  
Wind Speed 4 mph (ENE)    
Max Wind Speed 9 mph    
Max Gust Speed 16 mph    
Visibility 10 miles    
Events      
T = Trace of Precipitation, MM = Missing Value Source: NWS Daily Summary

Daily Weather History Graph

Daily Weather History Graph

Search for Another Location

Airport or City:

Trip Planner

Search our weather history database for the weather conditions in past years. The results will help you decide how hot, cold, wet, or windy it might be!

Date:

Astronomy

Oct. 03, 2013 Rise Set
Actual Time 7:24 AM EDT 7:13 PM EDT
Civil Twilight 7:00 AM EDT 7:37 PM EDT
Nautical Twilight 6:33 AM EDT 8:04 PM EDT
Astronomical Twilight 6:06 AM EDT 8:31 PM EDT
Moon 6:01 AM EDT (10/3) 6:19 PM EDT (10/3)
Length of Visible Light 12h 36m
Length of Day
11h 49m
Waning Crescent, 2% of the Moon is Illuminated
Oct 3
Waning Crescent
Oct 4
New
Oct 11
First Quarter
Oct 18
Full
Oct 26
Last Quarter

Hourly Weather History & Observations

Time (EDT) Temp. Heat Index Dew Point Humidity Pressure Visibility Wind Dir Wind Speed Gust Speed Precip Events Conditions
12:53 AM 78.1 °F - 70.0 °F 76% 30.07 in 10.0 mi Calm Calm - N/A   Overcast
1:53 AM 77.0 °F - 70.0 °F 79% 30.05 in 10.0 mi ENE 4.6 mph - N/A   Overcast
2:53 AM 75.9 °F - 70.0 °F 82% 30.04 in 10.0 mi ENE 4.6 mph - N/A   Overcast
3:53 AM 75.0 °F - 70.0 °F 84% 30.01 in 10.0 mi ENE 5.8 mph - N/A   Overcast
4:53 AM 75.0 °F - 70.0 °F 84% 29.99 in 10.0 mi NE 5.8 mph - N/A   Mostly Cloudy
5:53 AM 73.9 °F - 70.0 °F 87% 30.00 in 10.0 mi East 3.5 mph - N/A   Scattered Clouds
6:53 AM 73.9 °F - 69.1 °F 85% 30.02 in 10.0 mi Calm Calm - N/A   Scattered Clouds
7:53 AM 73.9 °F - 68.0 °F 82% 30.03 in 10.0 mi Calm Calm - N/A   Scattered Clouds
8:53 AM 77.0 °F - 68.0 °F 74% 30.05 in 10.0 mi Calm Calm - N/A   Scattered Clouds
9:53 AM 80.1 °F 82.7 °F 68.0 °F 67% 30.08 in 10.0 mi East 5.8 mph - N/A   Scattered Clouds
10:53 AM 84.0 °F 87.0 °F 68.0 °F 58% 30.09 in 10.0 mi East 4.6 mph - N/A   Scattered Clouds
11:53 AM 84.9 °F 88.2 °F 68.0 °F 57% 30.08 in 10.0 mi Variable 5.8 mph - N/A   Scattered Clouds
12:53 PM 87.1 °F 89.9 °F 66.9 °F 51% 30.06 in 10.0 mi Variable 5.8 mph - N/A   Scattered Clouds
1:53 PM 88.0 °F 90.3 °F 66.0 °F 48% 30.05 in 10.0 mi SSE 8.1 mph - N/A   Mostly Cloudy
2:53 PM 90.0 °F 92.8 °F 66.9 °F 46% 30.02 in 10.0 mi Variable 5.8 mph - N/A   Mostly Cloudy
3:53 PM 89.1 °F 92.1 °F 66.9 °F 48% 30.01 in 10.0 mi Calm Calm - N/A   Mostly Cloudy
4:53 PM 89.1 °F 92.1 °F 66.9 °F 48% 30.00 in 10.0 mi ESE 3.5 mph - N/A   Mostly Cloudy
5:53 PM 88.0 °F 90.3 °F 66.0 °F 48% 30.00 in 10.0 mi East 5.8 mph - N/A   Mostly Cloudy
6:53 PM 87.1 °F 88.9 °F 64.9 °F 48% 30.01 in 10.0 mi Calm Calm - N/A   Overcast
7:53 PM 82.0 °F 85.9 °F 70.0 °F 67% 30.02 in 10.0 mi NNW 4.6 mph - N/A   Overcast
8:53 PM 81.0 °F 85.2 °F 72.0 °F 74% 30.03 in 10.0 mi North 6.9 mph - N/A   Overcast
9:53 PM 80.1 °F 84.2 °F 73.0 °F 79% 30.04 in 10.0 mi North 5.8 mph - N/A   Overcast
10:53 PM 82.0 °F 85.9 °F 70.0 °F 67% 30.06 in 10.0 mi NE 4.6 mph - N/A   Overcast